[[{"header":{"parameterUnit":"m.s-1","parameterCategory":2,"la1":30.2991,"la2":30.254,"lo1":-89.0895,"lo2":-89.0444,"dy":0.0017,"dx":0.0017,"nx":28,"ny":28,"refTime":"2024-08-13T09:00:00:Z","depth":"0","parameterNumber":2,"parameterNumberName":"U-component_of_CURRENTS"},"data":[0,0,0,0,0,0,0,0,0,0,0,0,0,0,0,0,0,0,0,0,0,0,0,0,0,0,0,0,0,0,0,0,0,0,0,0,0,0,0,0,0,0,0,0,0,0,0,0,0,0,0,0,0,0,0,0,0,0,0.3132,0.3132,0,0.3101,0.31,0.3099,0.3071,0.3071,0.3071,0.3071,0.3019,0.3018,0.3016,0,0,0,0,0,0,0,0,0,0,0,0,0,0.314,0.314,0.3132,0.3132,0.3132,0.3101,0.31,0.3099,0.3071,0.3071,0.3071,0.3071,0.302,0.3018,0.3016,0,0,0,0,0,0,0,0,0,0,0,0,0,0.312,0.3139,0.3132,0.3118,0.3117,0.3101,0.31,0.3099,0.3071,0.3071,0.3071,0.3071,0.302,0.3018,0.3016,0.2998,0,0,0.3009,0.3008,0,0,0,0,0,0,0,0,0.3122,0.3119,0.312,0.3119,0.3118,0.3094,0.3084,0.3066,0.307,0.3083,0.3071,0.3071,0.3046,0.3041,0.3028,0.2996,0.2993,0.3009,0.3008,0.3007,0.3006,0,0,0,0,0,0,0,0.3123,0.3121,0.3114,0.312,0.3119,0.3104,0.3101,0.308,0.3059,0.3082,0.3081,0.3085,0.3044,0.303,0.3027,0.2993,0.3009,0.3007,0.3006,0.3005,0.3012,0.3013,0,0,0,0,0,0,0.3138,0.3122,0.3116,0.3114,0.3126,0.3104,0.3101,0.3097,0.306,0.3056,0.3085,0.3084,0.3034,0.3029,0.3025,0.3059,0.3007,0.3004,0.3003,0.301,0.3012,0.3014,0,0,0,0,0,0,0.3139,0.3138,0.3117,0.3122,0.3119,0.3105,0.3101,0.3097,0.309,0.3064,0.3058,0.3085,0.3034,0.3028,0.3023,0.3054,0.3003,0.3001,0.3009,0.3011,0.3013,0.309,0,0,0,0,0,0,0.3139,0.3138,0.3137,0.3123,0.3119,0.3118,0.3101,0.3096,0.3095,0.3093,0.3061,0.3056,0.3034,0.3027,0.3021,0.305,0.3,0.3007,0.301,0.3012,0.3085,0.3094,0.3102,0,0,0,0,0,0.3139,0.3131,0.3136,0.3136,0.3119,0.3119,0.3115,0.3103,0.3095,0.3096,0.3081,0.3058,0.3041,0.3025,0.3018,0.3048,0.3005,0.3009,0.3012,0.3081,0.3092,0.3102,0,0,0,0,0,0,0.3118,0.3127,0.3133,0.3124,0.3132,0.3117,0.3109,0.3109,0.3095,0.3091,0.3065,0.3059,0.3073,0.3048,0.3031,0.3061,0.3024,0.3026,0.3079,0.3089,0.3098,0.3093,0.2998,0,0,0,0,0,0.312,0.3122,0.3132,0.3125,0.3129,0.3123,0.3121,0.3118,0.3109,0.3102,0.3085,0.3074,0.308,0.3074,0.3066,0.3069,0.3096,0.3089,0.3097,0.3105,0.3098,0.3179,0.3195,0.3025,0.3025,0.3025,0,0,0.3104,0.3115,0.3112,0.3123,0.312,0.313,0.312,0.312,0.3131,0.3098,0.3098,0.31,0.3089,0.3104,0.3108,0.3086,0.3175,0.3109,0.3115,0.3104,0.3185,0.3201,0.3216,0.3028,0.3027,0.3027,0,0,0.3087,0.3092,0.3094,0.3109,0.3126,0.3129,0.3137,0.3136,0.3138,0.3144,0.314,0.3161,0.3143,0.3157,0.3159,0.3207,0.3221,0.321,0.3241,0.3322,0.3337,0.335,0.344,0.3461,0.321,0.321,0.321,0,0.3072,0.3081,0.3094,0.311,0.3124,0.3135,0.3148,0.3152,0.3152,0.3166,0.3153,0.3182,0.3172,0.3216,0.3234,0.3226,0.3277,0.3204,0.3335,0.3348,0.336,0.3449,0.3471,0.3214,0.3213,0.3213,0.3213,0,0.3065,0.3079,0.3081,0.3113,0.313,0.3139,0.3165,0.318,0.3189,0.3202,0.3246,0.3246,0.3268,0.328,0.3265,0.3351,0.3364,0.3343,0.3311,0.3382,0.3471,0.3493,0.322,0.3218,0.3217,0.3216,0,0,0.3017,0.3067,0.3069,0.3095,0.3136,0.3148,0.3181,0.3219,0.3252,0.3265,0.3313,0.3335,0.335,0.3354,0.3361,0.3417,0.3558,0.3415,0.3418,0.3508,0.3761,0.3846,0.3877,0.357,0.3573,0.3576,0.3802,0,0.301,0.3043,0.3073,0.3107,0.3128,0.3169,0.3203,0.3243,0.3278,0.3326,0.3357,0.3401,0.3376,0.3406,0.3462,0.353,0.3612,0.35,0.3673,0.3679,0.3748,0.3903,0.3818,0.4018,0.3822,0.3826,0.3828,0,0.3,0.3028,0.3059,0.3126,0.3138,0.3162,0.3235,0.327,0.3347,0.338,0.3437,0.3466,0.3553,0.3521,0.3688,0.3623,0.37,0.3749,0.3759,0.3819,0.3803,0.3908,0.4064,0.3832,0.3861,0.3858,0.3856,0,0.297,0.3021,0.3049,0.3069,0.314,0.3165,0.3204,0.3281,0.3323,0.3425,0.3478,0.3571,0.3632,0.3736,0.3837,0.3783,0.403,0.3971,0.4126,0.4132,0.4081,0.4079,0.4031,0.4111,0.411,0.411,0.4109,0,0.2961,0.2984,0.3034,0.3051,0.3086,0.3149,0.3202,0.326,0.3353,0.343,0.3503,0.3597,0.369,0.3828,0.3904,0.411,0.4102,0.4177,0.4214,0.411,0.4108,0.3918,0.3791,0.4118,0.4116,0.4115,0.4113,0,0.2932,0.2966,0.2998,0.3058,0.3073,0.3099,0.3179,0.3232,0.333,0.3441,0.3483,0.3643,0.3858,0.3972,0.4167,0.4219,0.4275,0.4452,0.4335,0.4357,0.4279,0.4162,0.4142,0.4032,0.4677,0.468,0.4684,0,0.2921,0.2934,0.2979,0.2994,0.3018,0.3062,0.3103,0.32,0.3277,0.3484,0.3553,0.3777,0.3941,0.4272,0.4437,0.4651,0.4421,0.4676,0.4555,0.4309,0.4205,0.4024,0.3915,0.4525,0.4527,0.4528,0.4529,0,0.2901,0.2913,0.294,0.2962,0.2994,0.3024,0.31,0.3147,0.3304,0.342,0.3617,0.3761,0.4124,0.431,0.4603,0.4727,0.4434,0.4714,0.4473,0.412,0.3903,0.3802,0.4335,0.4541,0.454,0.4539,0.4538,0.4538,0.2882,0.2887,0.2917,0.2933,0.2963,0.2988,0.3002,0.3124,0.3232,0.3415,0.36,0.3788,0.4075,0.4497,0.461,0.4645,0.4576,0.4511,0.4409,0.4263,0.4084,0.4675,0.4908,0.4909,0.491,0.4911,0.4911,0,0.286,0.2873,0.2889,0.2905,0.291,0.2936,0.3007,0.3031,0.3148,0.3357,0.3529,0.3749,0.3967,0.4175,0.4358,0.4283,0.4133,0.4144,0.3777,0.3701,0.4247,0.416,0.4223,0.4223,0.4223,0.4224,0.4224,0.4224,0.2853,0.2859,0.2861,0.2847,0.2851,0.2844,0.286,0.2919,0.3038,0.317,0.3275,0.3421,0.3613,0.3804,0.3795,0.378,0.343,0.3401,0.3287,0.3541,0.3561,0.358,0.3464,0.3381,0.3379,0.2641,0.2635,0.263]},{"header":{"parameterUnit":"m.s-1","parameterCategory":2,"la1":30.2991,"la2":30.254,"lo1":-89.0895,"lo2":-89.0444,"dy":0.0017,"dx":0.0017,"nx":28,"ny":28,"refTime":"2024-08-13T09:00:00:Z","depth":"0","parameterNumber":3,"parameterNumberName":"V-component_of_CURRENTS"},"data":[0,0,0,0,0,0,0,0,0,0,0,0,0,0,0,0,0,0,0,0,0,0,0,0,0,0,0,0,0,0,0,0,0,0,0,0,0,0,0,0,0,0,0,0,0,0,0,0,0,0,0,0,0,0,0,0,0,0,-0.0843,-0.0843,0,-0.0859,-0.0859,-0.086,-0.0917,-0.0919,-0.092,-0.0921,-0.0981,-0.0981,-0.0981,0,0,0,0,0,0,0,0,0,0,0,0,0,-0.0875,-0.0874,-0.0843,-0.0843,-0.0843,-0.0859,-0.0859,-0.086,-0.0917,-0.0919,-0.092,-0.0922,-0.098,-0.0981,-0.0981,0,0,0,0,0,0,0,0,0,0,0,0,0,-0.0874,-0.0874,-0.0843,-0.0873,-0.0876,-0.0859,-0.0859,-0.086,-0.0917,-0.0919,-0.0921,-0.0922,-0.098,-0.0981,-0.0982,-0.0949,0,0,-0.0984,-0.0984,0,0,0,0,0,0,0,0,-0.0874,-0.0873,-0.0869,-0.0871,-0.0874,-0.0887,-0.0892,-0.0892,-0.0916,-0.0902,-0.0921,-0.0923,-0.0951,-0.0954,-0.0954,-0.0952,-0.0954,-0.0984,-0.0984,-0.0984,-0.0985,0,0,0,0,0,0,0,-0.0874,-0.0872,-0.085,-0.0869,-0.0872,-0.089,-0.0892,-0.0892,-0.0918,-0.0904,-0.0908,-0.0907,-0.0954,-0.0953,-0.0956,-0.0955,-0.0984,-0.0984,-0.0985,-0.0985,-0.0963,-0.0962,0,0,0,0,0,0,-0.0867,-0.0872,-0.085,-0.0851,-0.0877,-0.0888,-0.089,-0.0882,-0.0917,-0.0924,-0.0906,-0.091,-0.0951,-0.0955,-0.0959,-0.0929,-0.0984,-0.0985,-0.0985,-0.0964,-0.0962,-0.0961,0,0,0,0,0,0,-0.0867,-0.0864,-0.0849,-0.0862,-0.0861,-0.0885,-0.0876,-0.0881,-0.0887,-0.0918,-0.0926,-0.0906,-0.0953,-0.0958,-0.0956,-0.0932,-0.0985,-0.0986,-0.0965,-0.0963,-0.0962,-0.0866,0,0,0,0,0,0,-0.0868,-0.0864,-0.0852,-0.0861,-0.086,-0.083,-0.0874,-0.088,-0.0883,-0.0889,-0.092,-0.0928,-0.0955,-0.0955,-0.0957,-0.0934,-0.0986,-0.0966,-0.0964,-0.0962,-0.0871,-0.0862,-0.0854,0,0,0,0,0,-0.0869,-0.0839,-0.0851,-0.0848,-0.0843,-0.0828,-0.0829,-0.0854,-0.0881,-0.0869,-0.0896,-0.0927,-0.0945,-0.0954,-0.0957,-0.0934,-0.0967,-0.0965,-0.0963,-0.0875,-0.0864,-0.0854,0,0,0,0,0,0,-0.085,-0.0842,-0.0856,-0.0827,-0.0825,-0.0838,-0.0823,-0.0846,-0.0856,-0.0863,-0.0906,-0.0913,-0.0906,-0.093,-0.0939,-0.0924,-0.0964,-0.0962,-0.0896,-0.0886,-0.0878,-0.0864,-0.0987,0,0,0,0,0,-0.0837,-0.0813,-0.0816,-0.0794,-0.0787,-0.0805,-0.0802,-0.0818,-0.0829,-0.0836,-0.086,-0.0885,-0.0895,-0.09,-0.0913,-0.0894,-0.0924,-0.0885,-0.0877,-0.0869,-0.086,-0.089,-0.0883,-0.0954,-0.0954,-0.0954,0,0,-0.0825,-0.0818,-0.0806,-0.0788,-0.0788,-0.0761,-0.0808,-0.0792,-0.0776,-0.0838,-0.0823,-0.0853,-0.0885,-0.087,-0.0869,-0.0889,-0.0861,-0.0866,-0.086,-0.0855,-0.0887,-0.088,-0.0874,-0.0953,-0.0953,-0.0953,0,0,-0.078,-0.0778,-0.074,-0.0729,-0.0717,-0.0724,-0.0717,-0.0722,-0.073,-0.0715,-0.0762,-0.0774,-0.0786,-0.0804,-0.0815,-0.0766,-0.0817,-0.0777,-0.0719,-0.0747,-0.0742,-0.0737,-0.0749,-0.0746,-0.0771,-0.0771,-0.0771,0,-0.0771,-0.072,-0.0728,-0.0687,-0.0669,-0.0702,-0.0659,-0.0662,-0.0671,-0.0672,-0.0698,-0.0725,-0.0751,-0.0742,-0.0729,-0.0745,-0.0771,-0.0752,-0.0736,-0.0732,-0.0729,-0.0743,-0.0741,-0.0766,-0.0767,-0.0767,-0.0768,0,-0.0695,-0.0656,-0.0629,-0.0589,-0.0572,-0.0537,-0.0541,-0.0534,-0.0553,-0.057,-0.057,-0.0607,-0.0629,-0.0637,-0.0666,-0.0656,-0.0683,-0.0722,-0.0759,-0.0716,-0.0733,-0.0733,-0.0759,-0.0761,-0.0763,-0.0764,0,0,-0.0671,-0.0592,-0.0582,-0.054,-0.0514,-0.0488,-0.0459,-0.0441,-0.0424,-0.045,-0.0434,-0.0459,-0.0504,-0.052,-0.0563,-0.0583,-0.0578,-0.0638,-0.0642,-0.0644,-0.0633,-0.0583,-0.0579,-0.0622,-0.0622,-0.0622,-0.0647,0,-0.061,-0.0507,-0.0491,-0.0402,-0.0346,-0.036,-0.0327,-0.0323,-0.0337,-0.0331,-0.0384,-0.0385,-0.0453,-0.0458,-0.0493,-0.0557,-0.0577,-0.0567,-0.0678,-0.0681,-0.0638,-0.0577,-0.048,-0.0489,-0.0647,-0.0647,-0.0647,0,-0.0535,-0.0475,-0.037,-0.0291,-0.027,-0.0231,-0.0189,-0.0164,-0.018,-0.0194,-0.0226,-0.0278,-0.0307,-0.0373,-0.0464,-0.0459,-0.0534,-0.0589,-0.0592,-0.0579,-0.0631,-0.0561,-0.0483,-0.0681,-0.0648,-0.0648,-0.0648,0,-0.0484,-0.0387,-0.0297,-0.0269,-0.0194,-0.0158,-0.0129,-0.0123,-0.0093,-0.0108,-0.0096,-0.0168,-0.0182,-0.0293,-0.0404,-0.0441,-0.05,-0.0572,-0.0597,-0.0595,-0.0549,-0.0542,-0.0668,-0.0634,-0.0633,-0.0633,-0.0633,0,-0.0406,-0.0329,-0.0264,-0.0207,-0.0116,-0.0092,-0.0013,-0.0004,0.0016,0.0068,-0.0022,0.0011,-0.0165,-0.0224,-0.0358,-0.045,-0.0468,-0.0563,-0.0589,-0.051,-0.05,-0.0701,-0.0812,-0.0634,-0.0634,-0.0634,-0.0634,0,-0.0326,-0.029,-0.0178,-0.0098,-0.0077,-0.0005,0.0073,0.0127,0.0131,0.0198,0.0202,0.0149,0.0091,-0.007,-0.0224,-0.0358,-0.054,-0.0505,-0.0385,-0.0395,-0.0614,-0.0721,-0.0833,-0.0892,-0.0545,-0.0544,-0.0543,0,-0.0256,-0.0194,-0.0097,-0.0041,0.0007,0.0095,0.0155,0.0183,0.0242,0.0302,0.0348,0.0318,0.033,0.0135,-0.007,-0.0262,-0.0464,-0.0348,-0.0404,-0.0586,-0.0728,-0.0809,-0.0857,-0.0309,-0.0306,-0.0304,-0.0302,0,-0.0125,-0.0104,-0.002,0.0076,0.0152,0.0241,0.0329,0.0391,0.0438,0.0521,0.0621,0.0646,0.0493,0.0386,0.0124,-0.0046,-0.0437,-0.0307,-0.0533,-0.0567,-0.0625,-0.0705,-0.0339,-0.0281,-0.0283,-0.0284,-0.0285,-0.0286,-0.0026,0.0043,0.0121,0.0213,0.0289,0.0387,0.0486,0.0596,0.0731,0.093,0.0897,0.1072,0.0803,0.0492,0.021,-0.0237,-0.0292,-0.0397,-0.0515,-0.0584,-0.0627,-0.0196,-0.0148,-0.015,-0.0151,-0.0152,-0.0153,0,0.0103,0.0158,0.0252,0.0355,0.0447,0.046,0.0604,0.0739,0.0948,0.1206,0.1366,0.1429,0.1094,0.0658,0.0043,-0.0363,-0.0535,-0.0617,-0.0742,-0.0786,-0.0429,-0.0407,-0.0365,-0.0365,-0.0365,-0.0365,-0.0364,-0.0364,0.0181,0.0284,0.0311,0.0466,0.0538,0.0688,0.0785,0.1014,0.1241,0.1649,0.1891,0.1996,0.1617,0.0397,-0.0482,-0.07,-0.1007,-0.1027,-0.1238,-0.1045,-0.1036,-0.1027,-0.1036,-0.1126,-0.1127,-0.1509,-0.1513,-0.1517]}],[{"header":{"parameterUnit":"m.s-1","parameterCategory":2,"la1":30.2991,"la2":30.254,"lo1":-89.0895,"lo2":-89.0444,"dy":0.0017,"dx":0.0017,"nx":28,"ny":28,"refTime":"2024-08-13T09:00:00:Z","depth":"2","parameterNumber":2,"parameterNumberName":"U-component_of_CURRENTS"},"data":[0,0,0,0,0,0,0,0,0,0,0,0,0,0,0,0,0,0,0,0,0,0,0,0,0,0,0,0,0,0,0,0,0,0,0,0,0,0,0,0,0,0,0,0,0,0,0,0,0,0,0,0,0,0,0,0,0,0,0.2822,0.2823,0,0.2903,0.2904,0.2905,0.2929,0.2929,0.2928,0.2928,0.3014,0.3017,0.3019,0,0,0,0,0,0,0,0,0,0,0,0,0,0.2728,0.273,0.2822,0.2823,0.2825,0.2903,0.2904,0.2905,0.2929,0.2929,0.2928,0.2928,0.3014,0.3017,0.302,0,0,0,0,0,0,0,0,0,0,0,0,0,0.2783,0.273,0.2822,0.2847,0.2851,0.2903,0.2904,0.2905,0.2929,0.2929,0.2928,0.2928,0.3013,0.3016,0.302,0.3051,0,0,0.3032,0.3033,0,0,0,0,0,0,0,0,0.278,0.2786,0.2842,0.2846,0.2849,0.2907,0.2903,0.2955,0.2929,0.2897,0.2928,0.2928,0.2981,0.2987,0.3,0.3055,0.3059,0.3032,0.3034,0.3036,0.3037,0,0,0,0,0,0,0,0.2776,0.2783,0.2852,0.2844,0.2848,0.2868,0.2875,0.2913,0.2939,0.29,0.2902,0.2914,0.2982,0.2997,0.3003,0.306,0.3032,0.3035,0.3038,0.3039,0.3212,0.3214,0,0,0,0,0,0,0.2768,0.278,0.285,0.2855,0.2815,0.287,0.2878,0.2887,0.2938,0.2946,0.2915,0.2915,0.299,0.2998,0.3006,0.308,0.3036,0.3039,0.3042,0.321,0.3213,0.3215,0,0,0,0,0,0,0.2766,0.2774,0.2847,0.2821,0.2832,0.2872,0.2883,0.2889,0.2905,0.295,0.2957,0.2923,0.299,0.3,0.3058,0.3082,0.3041,0.3045,0.3207,0.3211,0.3214,0.3207,0,0,0,0,0,0,0.2763,0.2772,0.2779,0.282,0.2833,0.2886,0.2884,0.2891,0.2913,0.2915,0.296,0.2967,0.2991,0.3053,0.3062,0.3087,0.3048,0.3204,0.3209,0.3213,0.3204,0.3209,0.3214,0,0,0,0,0,0.2759,0.2772,0.2778,0.2787,0.2839,0.2887,0.2895,0.2922,0.2914,0.2931,0.2967,0.2966,0.3087,0.3058,0.3068,0.3094,0.3202,0.3207,0.3212,0.3202,0.3208,0.3214,0,0,0,0,0,0,0.2738,0.2778,0.2785,0.2809,0.2847,0.2892,0.2911,0.2921,0.2961,0.2963,0.2991,0.3003,0.3077,0.3088,0.3054,0.3162,0.3146,0.3154,0.3135,0.3141,0.3146,0.3159,0.3051,0,0,0,0,0,0.2735,0.2751,0.2796,0.2815,0.2834,0.2869,0.289,0.291,0.295,0.2965,0.2995,0.3041,0.3108,0.3123,0.3185,0.3224,0.3272,0.3253,0.3258,0.3262,0.3283,0.3366,0.338,0.3232,0.3232,0.3232,0,0,0.2729,0.2755,0.2763,0.2811,0.284,0.287,0.2881,0.2918,0.2946,0.297,0.3015,0.307,0.3131,0.3197,0.3227,0.3201,0.3334,0.3269,0.3271,0.3291,0.3373,0.3387,0.34,0.3236,0.3235,0.3235,0,0,0.2726,0.2752,0.2763,0.2797,0.2846,0.2875,0.2884,0.2932,0.2958,0.301,0.3054,0.3126,0.3184,0.3248,0.3284,0.3355,0.3377,0.3362,0.3371,0.3451,0.3463,0.3474,0.3564,0.3583,0.334,0.334,0.334,0,0.2716,0.2739,0.2776,0.28,0.2829,0.2873,0.2897,0.2938,0.2997,0.3036,0.3026,0.3174,0.322,0.3324,0.3352,0.3367,0.3411,0.3332,0.3455,0.3467,0.3479,0.3568,0.359,0.334,0.334,0.334,0.334,0,0.2722,0.2744,0.2759,0.28,0.2838,0.2871,0.2931,0.2976,0.3005,0.305,0.3159,0.3231,0.3313,0.3342,0.3366,0.3477,0.3485,0.3466,0.3429,0.3493,0.3584,0.3606,0.334,0.334,0.334,0.334,0,0,0.2692,0.2748,0.2753,0.277,0.2842,0.2871,0.2938,0.3018,0.3068,0.3132,0.3204,0.3327,0.3362,0.341,0.3452,0.3517,0.3644,0.3515,0.3519,0.3588,0.3828,0.3642,0.3649,0.3628,0.3632,0.3635,0.3861,0,0.2685,0.2712,0.2753,0.279,0.2814,0.2886,0.2942,0.3024,0.3098,0.3181,0.3279,0.3372,0.3385,0.343,0.3499,0.3628,0.3702,0.3586,0.3772,0.3779,0.3591,0.3667,0.3282,0.3433,0.3883,0.3887,0.3889,0,0.2681,0.2701,0.2725,0.2788,0.2807,0.2836,0.2947,0.3005,0.3146,0.3206,0.331,0.3391,0.3538,0.3514,0.3746,0.3665,0.3752,0.3832,0.3841,0.3686,0.3633,0.3444,0.3457,0.3927,0.3924,0.3921,0.3919,0,0.264,0.2687,0.2701,0.2722,0.2798,0.2831,0.2881,0.3011,0.308,0.323,0.3294,0.3461,0.3549,0.3692,0.3848,0.3811,0.4082,0.405,0.3974,0.3964,0.3685,0.364,0.4209,0.4209,0.4208,0.4208,0.4207,0,0.2627,0.2642,0.2675,0.2685,0.2716,0.2785,0.2854,0.2937,0.3066,0.3155,0.3289,0.3394,0.3594,0.3759,0.3886,0.3995,0.4117,0.4007,0.4009,0.367,0.3625,0.4083,0.4065,0.4216,0.4214,0.4213,0.4211,0,0.2596,0.2616,0.2631,0.2681,0.2696,0.2718,0.2816,0.2871,0.2996,0.3118,0.3169,0.3384,0.3601,0.3788,0.4048,0.402,0.4168,0.4171,0.376,0.3706,0.3998,0.3978,0.4129,0.4124,0.412,0.4117,0.4114,0,0.2591,0.2589,0.2609,0.2605,0.2623,0.2666,0.2698,0.2822,0.2889,0.3114,0.3165,0.3405,0.3531,0.3809,0.3817,0.3964,0.4159,0.3696,0.3539,0.4002,0.3991,0.3977,0.3963,0.3203,0.3193,0.3184,0.3178,0,0.2576,0.2569,0.2571,0.2556,0.2563,0.2583,0.2639,0.2682,0.2839,0.2947,0.3112,0.3231,0.3401,0.3343,0.346,0.3507,0.3629,0.3528,0.4155,0.3242,0.3135,0.3121,0.3138,0.3105,0.3112,0.3117,0.3121,0.3124,0.2555,0.2539,0.2518,0.2504,0.2498,0.248,0.2484,0.2566,0.2649,0.2739,0.2899,0.2944,0.2957,0.2925,0.2926,0.2944,0.3183,0.3092,0.3116,0.3149,0.296,0.2847,0.2732,0.2737,0.2741,0.2745,0.2748,0,0.2523,0.2497,0.247,0.2421,0.2369,0.2404,0.2429,0.2388,0.2447,0.2517,0.2568,0.2312,0.225,0.2411,0.224,0.2223,0.2203,0.2242,0.2182,0.2252,0.2315,0.2084,0.1624,0.1622,0.162,0.1618,0,0,0.25,0.2446,0.2418,0.2301,0.227,0.2197,0.2196,0.2116,0.2128,0.2064,0.205,0.2056,0.2216,0.1834,0.1785,0.1704,0.1985,0.1654,0.2534,0.2525,0.2586,0.276,0.2475,0,0,0,0,0]},{"header":{"parameterUnit":"m.s-1","parameterCategory":2,"la1":30.2991,"la2":30.254,"lo1":-89.0895,"lo2":-89.0444,"dy":0.0017,"dx":0.0017,"nx":28,"ny":28,"refTime":"2024-08-13T09:00:00:Z","depth":"2","parameterNumber":3,"parameterNumberName":"V-component_of_CURRENTS"},"data":[0,0,0,0,0,0,0,0,0,0,0,0,0,0,0,0,0,0,0,0,0,0,0,0,0,0,0,0,0,0,0,0,0,0,0,0,0,0,0,0,0,0,0,0,0,0,0,0,0,0,0,0,0,0,0,0,0,0,0.0768,0.0768,0,0.0676,0.0675,0.0673,0.0576,0.0574,0.0573,0.0572,0.0427,0.0425,0.0422,0,0,0,0,0,0,0,0,0,0,0,0,0,0.0819,0.0819,0.0769,0.0767,0.0766,0.0676,0.0675,0.0673,0.0576,0.0574,0.0573,0.0571,0.0428,0.0425,0.0422,0,0,0,0,0,0,0,0,0,0,0,0,0,0.0768,0.0819,0.0769,0.0707,0.0701,0.0676,0.0674,0.0673,0.0576,0.0574,0.0572,0.0571,0.0429,0.0425,0.0421,0.0436,0,0,0.0409,0.0408,0,0,0,0,0,0,0,0,0.0772,0.0767,0.0717,0.0712,0.0704,0.0636,0.0639,0.0591,0.0577,0.0623,0.0572,0.057,0.0494,0.0485,0.0471,0.043,0.0423,0.0409,0.0406,0.0405,0.0404,0,0,0,0,0,0,0,0.0775,0.077,0.0731,0.0717,0.0709,0.067,0.0661,0.063,0.0569,0.0619,0.0612,0.0603,0.049,0.0476,0.0467,0.0421,0.0409,0.0405,0.0403,0.0402,0.0355,0.0356,0,0,0,0,0,0,0.0792,0.0774,0.0734,0.0728,0.0734,0.0671,0.0661,0.0659,0.057,0.0556,0.0605,0.0599,0.0483,0.0472,0.0462,0.046,0.0405,0.0401,0.0399,0.0354,0.0355,0.0356,0,0,0,0,0,0,0.0794,0.079,0.0738,0.0749,0.0739,0.0672,0.0671,0.0659,0.0631,0.056,0.0544,0.0589,0.0481,0.0467,0.0445,0.0454,0.0399,0.0396,0.0352,0.0354,0.0356,0.0466,0,0,0,0,0,0,0.0796,0.0792,0.0797,0.075,0.0739,0.0733,0.0673,0.0658,0.063,0.0621,0.0542,0.0527,0.0479,0.0451,0.0441,0.0447,0.0393,0.0351,0.0353,0.0355,0.046,0.0471,0.048,0,0,0,0,0,0.0798,0.0821,0.0798,0.0793,0.0749,0.0734,0.0726,0.067,0.0631,0.0635,0.0586,0.0529,0.0456,0.045,0.0437,0.0443,0.035,0.0353,0.0355,0.0456,0.0469,0.0479,0,0,0,0,0,0,0.0845,0.0812,0.0785,0.0795,0.0769,0.0718,0.0717,0.0676,0.064,0.0625,0.0552,0.0535,0.052,0.0472,0.0466,0.0436,0.0391,0.0391,0.0472,0.0483,0.0492,0.0503,0.0389,0,0,0,0,0,0.0861,0.0868,0.0826,0.0836,0.0827,0.0771,0.0756,0.0719,0.068,0.066,0.0605,0.0552,0.0525,0.0497,0.0466,0.0451,0.0402,0.0444,0.0454,0.0462,0.0463,0.0382,0.0384,0.0365,0.0365,0.0365,0,0,0.0881,0.0865,0.0867,0.0847,0.082,0.0825,0.0757,0.0744,0.0742,0.0653,0.0636,0.059,0.0533,0.0521,0.0507,0.0477,0.0453,0.0465,0.0473,0.0469,0.0385,0.0387,0.0388,0.0366,0.0366,0.0366,0,0,0.093,0.0914,0.0932,0.0921,0.089,0.0864,0.0863,0.0813,0.0785,0.0768,0.0709,0.068,0.0617,0.0588,0.0563,0.0609,0.0515,0.0581,0.0624,0.0548,0.0548,0.0548,0.0537,0.0534,0.0574,0.0574,0.0575,0,0.095,0.0969,0.0936,0.0951,0.0951,0.0889,0.0909,0.0884,0.0831,0.0823,0.0775,0.0705,0.0656,0.0648,0.0653,0.0631,0.0577,0.0587,0.0559,0.0557,0.0555,0.0543,0.0539,0.058,0.0579,0.0579,0.0578,0,0.1008,0.1022,0.1038,0.1038,0.1038,0.1049,0.1014,0.1006,0.0959,0.0925,0.0899,0.083,0.0775,0.0761,0.0713,0.0681,0.0649,0.059,0.053,0.0563,0.055,0.0543,0.0588,0.0586,0.0584,0.0583,0,0,0.1044,0.1071,0.1073,0.1091,0.1084,0.109,0.1109,0.1106,0.1116,0.1047,0.1045,0.0984,0.0914,0.0881,0.0813,0.0745,0.0701,0.065,0.0643,0.0642,0.0556,0.0519,0.0508,0.0606,0.0605,0.0603,0.0572,0,0.1091,0.1143,0.1145,0.1198,0.1222,0.1201,0.1228,0.1218,0.1189,0.1174,0.1094,0.1055,0.0967,0.0922,0.0847,0.0732,0.0679,0.0717,0.0522,0.0518,0.0479,0.0497,0.0408,0.0368,0.0565,0.0564,0.0563,0,0.1132,0.1167,0.1221,0.128,0.1289,0.1307,0.134,0.1354,0.1335,0.1305,0.1246,0.1165,0.1078,0.0977,0.0802,0.0813,0.0691,0.0605,0.06,0.0514,0.0465,0.0355,0.0348,0.0552,0.0552,0.0553,0.0554,0,0.1154,0.122,0.1266,0.1282,0.1333,0.1352,0.1372,0.1381,0.1404,0.1361,0.1351,0.1241,0.1166,0.0992,0.0808,0.0773,0.0621,0.0554,0.0431,0.043,0.0293,0.0282,0.0427,0.0427,0.0428,0.0428,0.0428,0,0.1192,0.123,0.1274,0.1296,0.1359,0.1379,0.1433,0.1442,0.1459,0.1491,0.1389,0.1386,0.1144,0.103,0.0849,0.0637,0.0646,0.0447,0.0403,0.0337,0.033,0.0424,0.0424,0.0427,0.0427,0.0427,0.0427,0,0.1191,0.1222,0.128,0.1342,0.136,0.1393,0.1461,0.1513,0.1511,0.1544,0.152,0.1464,0.1315,0.1119,0.0875,0.0696,0.0502,0.0429,0.0407,0.036,0.036,0.0366,0.0274,0.0272,0.027,0.0269,0.0268,0,0.1187,0.1215,0.1292,0.1329,0.1348,0.1404,0.1461,0.151,0.1572,0.1605,0.1634,0.1525,0.147,0.1153,0.0791,0.0489,0.0517,0.0248,0.0154,0.037,0.0336,0.0346,0.0354,0.0046,0.0043,0.0041,0.0039,0,0.118,0.1201,0.125,0.1329,0.1385,0.1471,0.1548,0.1618,0.1686,0.1743,0.1795,0.1756,0.1416,0.106,0.0656,0.0448,0.028,0.019,0.0386,0.0101,0.0151,0.0121,0.0136,0.0018,0.002,0.0021,0.0023,0.0023,0.1154,0.119,0.1253,0.1331,0.1409,0.1521,0.1595,0.1718,0.1843,0.1888,0.1866,0.1752,0.1356,0.0754,0.0443,0.0102,0.0125,-0.0018,-0.001,0.0,-0.0018,0.0025,-0.013,-0.0129,-0.0128,-0.0127,-0.0126,0,0.1119,0.1179,0.1258,0.1356,0.1448,0.1485,0.165,0.175,0.1915,0.1891,0.1877,0.1442,0.1055,0.0692,0.01,-0.0208,-0.0229,-0.0241,-0.0231,-0.0212,-0.0194,-0.022,-0.0387,-0.0387,-0.0388,-0.0388,0,0,0.1099,0.1159,0.1224,0.1358,0.143,0.1554,0.1648,0.1806,0.1853,0.1858,0.1716,0.1467,0.1043,0.0574,0.0163,-0.0111,-0.0071,-0.0151,0.0067,0.0139,0.0162,-0.0081,-0.0103,0,0,0,0,0]}],[{"header":{"parameterUnit":"m.s-1","parameterCategory":2,"la1":30.2991,"la2":30.254,"lo1":-89.0895,"lo2":-89.0444,"dy":0.0017,"dx":0.0017,"nx":28,"ny":28,"refTime":"2024-08-13T09:00:00:Z","depth":"4","parameterNumber":2,"parameterNumberName":"U-component_of_CURRENTS"},"data":[0,0,0,0,0,0,0,0,0,0,0,0,0,0,0,0,0,0,0,0,0,0,0,0,0,0,0,0,0,0,0,0,0,0,0,0,0,0,0,0,0,0,0,0,0,0,0,0,0,0,0,0,0,0,0,0,0,0,0.0753,0.0754,0,0.0788,0.0787,0.0787,0.0865,0.0868,0.087,0.0873,0.0929,0.0928,0.0927,0,0,0,0,0,0,0,0,0,0,0,0,0,0.0667,0.0668,0.0753,0.0754,0.0755,0.0788,0.0787,0.0787,0.0865,0.0868,0.0871,0.0874,0.0929,0.0928,0.0927,0,0,0,0,0,0,0,0,0,0,0,0,0,0.0695,0.0668,0.0752,0.0805,0.0811,0.0788,0.0787,0.0787,0.0864,0.0868,0.0872,0.0875,0.0929,0.0928,0.0927,0.0846,0,0,0.0923,0.0923,0,0,0,0,0,0,0,0,0.0693,0.0697,0.0796,0.0801,0.0808,0.0834,0.0778,0.0811,0.0863,0.0834,0.0873,0.0877,0.0902,0.0903,0.0889,0.0849,0.0851,0.0923,0.0923,0.0922,0.0922,0,0,0,0,0,0,0,0.0691,0.0695,0.0757,0.0797,0.0804,0.0798,0.0805,0.0784,0.084,0.0837,0.0845,0.0862,0.0905,0.0889,0.0891,0.0852,0.0923,0.0922,0.0922,0.0921,0.1011,0.1014,0,0,0,0,0,0,0.0706,0.0694,0.0756,0.0759,0.0769,0.0797,0.0805,0.0814,0.084,0.0851,0.0859,0.0866,0.089,0.0892,0.0893,0.1005,0.0922,0.0921,0.092,0.1008,0.1011,0.1015,0,0,0,0,0,0,0.0704,0.071,0.0755,0.0735,0.0742,0.0797,0.0805,0.0813,0.0851,0.0859,0.0868,0.0896,0.0893,0.0895,0.0958,0.1001,0.092,0.0919,0.1004,0.1009,0.1013,0.1097,0,0,0,0,0,0,0.0701,0.0709,0.0724,0.0736,0.0744,0.0778,0.0802,0.0812,0.0857,0.0867,0.0891,0.0898,0.0896,0.096,0.0957,0.0997,0.0918,0.1,0.1006,0.1012,0.109,0.1104,0.1115,0,0,0,0,0,0.0697,0.0712,0.0724,0.0733,0.0761,0.0779,0.0782,0.0826,0.0856,0.0872,0.0924,0.09,0.0995,0.0961,0.0957,0.0998,0.0997,0.1004,0.1011,0.1085,0.1101,0.1115,0,0,0,0,0,0,0.0687,0.0722,0.0736,0.0762,0.0785,0.0798,0.0828,0.0843,0.0886,0.0909,0.0924,0.0934,0.098,0.0993,0.0955,0.1048,0.0996,0.1003,0.1054,0.1069,0.1081,0.1078,0.0917,0,0,0,0,0,0.0687,0.0701,0.0736,0.0752,0.0782,0.0805,0.0822,0.0839,0.0878,0.0901,0.0942,0.0982,0.0989,0.1041,0.1027,0.109,0.1051,0.1122,0.1135,0.1145,0.1144,0.1131,0.1141,0.1038,0.1037,0.1037,0,0,0.0685,0.0706,0.0715,0.075,0.0779,0.0811,0.0825,0.0858,0.0888,0.0896,0.0985,0.0991,0.1002,0.1062,0.1091,0.11,0.1157,0.1154,0.1163,0.1156,0.114,0.1149,0.1157,0.1042,0.1041,0.1041,0,0,0.0689,0.0718,0.0743,0.0768,0.0814,0.0825,0.0847,0.0895,0.0938,0.101,0.1007,0.1062,0.1129,0.1138,0.115,0.1227,0.1179,0.1249,0.1359,0.1347,0.1354,0.136,0.1321,0.1322,0.131,0.131,0.1311,0,0.0697,0.0726,0.0751,0.0787,0.082,0.0845,0.0883,0.0909,0.0971,0.1005,0.1068,0.1147,0.1155,0.1195,0.1256,0.1247,0.1238,0.1294,0.1359,0.1364,0.1369,0.1327,0.1327,0.1315,0.1315,0.1314,0.1314,0,0.0712,0.0755,0.0781,0.0833,0.0859,0.0893,0.094,0.0993,0.1069,0.109,0.1173,0.1221,0.1301,0.1305,0.1323,0.1368,0.1346,0.1326,0.1309,0.1383,0.1336,0.1335,0.1322,0.132,0.1319,0.1318,0,0,0.0698,0.0781,0.0794,0.084,0.089,0.0915,0.0979,0.1034,0.1104,0.1184,0.1285,0.1331,0.1389,0.1409,0.1432,0.1453,0.1481,0.1454,0.1451,0.1394,0.1457,0.1382,0.1372,0.1493,0.1493,0.1494,0.1408,0,0.0722,0.0786,0.0821,0.0895,0.0946,0.0994,0.1063,0.11,0.1182,0.1286,0.1322,0.1413,0.1421,0.1516,0.1533,0.1473,0.1486,0.1505,0.1411,0.1408,0.1314,0.1371,0.1496,0.1407,0.1406,0.1406,0.1406,0,0.0731,0.0778,0.0853,0.0959,0.0995,0.1049,0.1168,0.1227,0.1318,0.1406,0.1498,0.1534,0.159,0.1608,0.1565,0.1594,0.1554,0.1496,0.1491,0.1388,0.1331,0.1321,0.1403,0.1403,0.1403,0.1403,0.1404,0,0.0693,0.0805,0.0868,0.0899,0.1016,0.1093,0.1171,0.1265,0.1339,0.1492,0.157,0.1633,0.1705,0.1661,0.1583,0.1611,0.1483,0.1495,0.1364,0.1356,0.1406,0.1401,0.1451,0.1452,0.1452,0.1452,0.1452,0,0.0687,0.075,0.088,0.0915,0.1037,0.1116,0.126,0.1355,0.1487,0.1526,0.1653,0.167,0.1732,0.1668,0.1594,0.1461,0.1497,0.1374,0.1336,0.1446,0.1446,0.1404,0.14,0.1449,0.1449,0.145,0.1451,0,0.0634,0.0714,0.0795,0.0947,0.1024,0.1105,0.1311,0.1397,0.1535,0.1602,0.1657,0.1719,0.1651,0.1624,0.1524,0.1467,0.1336,0.1267,0.1359,0.1327,0.1221,0.1223,0.1164,0.116,0.1158,0.1155,0.1154,0,0.0612,0.0652,0.0803,0.0867,0.0959,0.1119,0.1233,0.142,0.1466,0.1541,0.1521,0.1549,0.1557,0.1349,0.1336,0.1228,0.1199,0.1163,0.1241,0.1226,0.1195,0.1201,0.1206,0.1149,0.1149,0.1148,0.1147,0,0.0576,0.0628,0.0684,0.0819,0.0952,0.107,0.1214,0.1242,0.1375,0.1506,0.1403,0.1382,0.1304,0.1251,0.1208,0.1095,0.1219,0.1136,0.1143,0.1216,0.1207,0.1181,0.1189,0.1138,0.1139,0.114,0.1141,0,0.0534,0.0558,0.0645,0.0751,0.0901,0.096,0.1055,0.1107,0.1194,0.1273,0.1185,0.1178,0.1231,0.1167,0.1048,0.1033,0.1048,0.1046,0.1058,0.1069,0.1083,0.1061,0.0914,0,0,0,0,0,0.0493,0.0515,0.0588,0.0675,0.0804,0.0881,0.1013,0.1081,0.118,0.1098,0.1165,0.1073,0.1021,0.0984,0.0953,0.0996,0.1037,0.0955,0.1037,0.1086,0.1097,0.1125,0,0,0,0,0,0,0.0468,0.0525,0.0545,0.0607,0.0634,0.0764,0.0822,0.0874,0.0837,0.093,0.0895,0.1012,0.0955,0.1012,0.0919,0.0924,0.0961,0.0982,0.098,0.108,0.1089,0.1098,0.1131,0,0,0,0,0]},{"header":{"parameterUnit":"m.s-1","parameterCategory":2,"la1":30.2991,"la2":30.254,"lo1":-89.0895,"lo2":-89.0444,"dy":0.0017,"dx":0.0017,"nx":28,"ny":28,"refTime":"2024-08-13T09:00:00:Z","depth":"4","parameterNumber":3,"parameterNumberName":"V-component_of_CURRENTS"},"data":[0,0,0,0,0,0,0,0,0,0,0,0,0,0,0,0,0,0,0,0,0,0,0,0,0,0,0,0,0,0,0,0,0,0,0,0,0,0,0,0,0,0,0,0,0,0,0,0,0,0,0,0,0,0,0,0,0,0,0.0168,0.0168,0,0.0101,0.01,0.0098,0.008,0.0081,0.0082,0.0083,-0.0009,-0.0012,-0.0015,0,0,0,0,0,0,0,0,0,0,0,0,0,0.021,0.021,0.0168,0.0168,0.0167,0.0101,0.0099,0.0098,0.008,0.0081,0.0082,0.0083,-0.0008,-0.0012,-0.0016,0,0,0,0,0,0,0,0,0,0,0,0,0,0.0169,0.021,0.0169,0.0154,0.0152,0.0101,0.0099,0.0098,0.008,0.0081,0.0082,0.0083,-0.0007,-0.0011,-0.0016,-0.0069,0,0,-0.0031,-0.0033,0,0,0,0,0,0,0,0,0.0171,0.0166,0.0156,0.0155,0.0153,0.0104,0.0081,0.0042,0.008,0.0103,0.0083,0.0084,0.0028,0.0021,-0.0,-0.0074,-0.0077,-0.0031,-0.0034,-0.0036,-0.0037,0,0,0,0,0,0,0,0.0174,0.0169,0.0137,0.0156,0.0154,0.0126,0.0121,0.0073,0.0056,0.0101,0.01,0.0099,0.0027,0.0004,-0.0003,-0.0079,-0.0031,-0.0035,-0.0038,-0.004,-0.0193,-0.0194,0,0,0,0,0,0,0.0193,0.0172,0.014,0.0136,0.017,0.0125,0.012,0.0115,0.0057,0.0051,0.0098,0.0099,0.0012,0.0003,-0.0006,-0.0057,-0.0036,-0.004,-0.0043,-0.0192,-0.0193,-0.0194,0,0,0,0,0,0,0.0194,0.0191,0.0142,0.0156,0.0148,0.0124,0.0118,0.0113,0.0098,0.0056,0.0049,0.009,0.0012,0.0001,-0.0049,-0.0061,-0.0043,-0.0047,-0.019,-0.0192,-0.0194,-0.0168,0,0,0,0,0,0,0.0195,0.0191,0.0191,0.0157,0.0149,0.0114,0.0117,0.0111,0.0097,0.0097,0.0046,0.0039,0.0013,-0.0041,-0.0053,-0.0067,-0.0051,-0.0189,-0.0191,-0.0193,-0.0168,-0.0169,-0.017,0,0,0,0,0,0.0197,0.0193,0.0191,0.0187,0.015,0.0114,0.0106,0.009,0.0096,0.0081,0.005,0.0041,-0.0064,-0.0046,-0.006,-0.0075,-0.0188,-0.019,-0.0193,-0.0167,-0.0169,-0.017,0,0,0,0,0,0,0.0208,0.019,0.0187,0.0177,0.015,0.0113,0.0105,0.0091,0.0053,0.0055,0.002,0.0009,-0.0041,-0.0066,-0.0046,-0.0128,-0.0126,-0.0132,-0.0102,-0.0104,-0.0105,-0.0093,-0.0055,0,0,0,0,0,0.0212,0.0204,0.0179,0.0169,0.0164,0.0134,0.0119,0.0102,0.0069,0.0054,0.0021,-0.0019,-0.0067,-0.0088,-0.0136,-0.0182,-0.0205,-0.0201,-0.0202,-0.0203,-0.0204,-0.0251,-0.0255,-0.0203,-0.0203,-0.0203,0,0,0.0213,0.0202,0.0198,0.0171,0.0155,0.0134,0.0127,0.0103,0.0079,0.0048,0.0009,-0.003,-0.0082,-0.0133,-0.0157,-0.0152,-0.023,-0.0206,-0.0206,-0.0207,-0.0254,-0.0259,-0.0263,-0.0205,-0.0205,-0.0204,0,0,0.0213,0.0205,0.0203,0.0181,0.0158,0.0134,0.0131,0.0093,0.0075,0.0025,-0.0001,-0.0045,-0.0114,-0.0152,-0.0181,-0.0222,-0.0239,-0.0233,-0.0226,-0.0271,-0.0275,-0.0279,-0.0309,-0.0316,-0.0229,-0.0229,-0.0229,0,0.0218,0.0212,0.0193,0.0183,0.0166,0.0139,0.0123,0.0092,0.0039,0.0017,0.0018,-0.0083,-0.0126,-0.0186,-0.0199,-0.0224,-0.0244,-0.0211,-0.0271,-0.0275,-0.028,-0.0309,-0.0317,-0.0228,-0.0228,-0.0228,-0.0228,0,0.0213,0.0209,0.0206,0.0186,0.0157,0.014,0.0099,0.0076,0.0053,0.0014,-0.0044,-0.0099,-0.0147,-0.0176,-0.0202,-0.0256,-0.0258,-0.0268,-0.0259,-0.0283,-0.0313,-0.0322,-0.0227,-0.0227,-0.0227,-0.0227,0,0,0.0231,0.0211,0.0212,0.0209,0.0159,0.014,0.0101,0.0055,0.0043,-0.0016,-0.0045,-0.0131,-0.0143,-0.0176,-0.0208,-0.0256,-0.0308,-0.027,-0.0272,-0.0285,-0.0395,-0.0346,-0.0351,-0.0321,-0.0323,-0.0324,-0.04,0,0.0241,0.0236,0.0208,0.0193,0.0188,0.0145,0.0116,0.0063,0.0022,-0.0015,-0.0079,-0.0121,-0.0147,-0.0156,-0.0209,-0.029,-0.033,-0.0286,-0.0382,-0.0385,-0.0328,-0.036,-0.0329,-0.0407,-0.0409,-0.041,-0.0411,0,0.0249,0.0248,0.0244,0.0217,0.0212,0.02,0.0159,0.0124,0.0054,0.0027,-0.0023,-0.0078,-0.0153,-0.0163,-0.0294,-0.026,-0.032,-0.0382,-0.0387,-0.0356,-0.0353,-0.0383,-0.0427,-0.0426,-0.0425,-0.0423,-0.0422,0,0.0283,0.0269,0.0275,0.0264,0.0229,0.0231,0.0214,0.0149,0.0136,0.0069,0.005,-0.005,-0.008,-0.0185,-0.03,-0.03,-0.0444,-0.0457,-0.047,-0.0467,-0.0497,-0.0492,-0.0544,-0.0544,-0.0544,-0.0543,-0.0543,0,0.0299,0.0306,0.0313,0.0317,0.034,0.0288,0.0301,0.0268,0.0228,0.0199,0.0101,0.0052,-0.0088,-0.0191,-0.0298,-0.0401,-0.0434,-0.0475,-0.0487,-0.0484,-0.0478,-0.0502,-0.0496,-0.0546,-0.0546,-0.0545,-0.0545,0,0.0327,0.0329,0.0341,0.0342,0.0364,0.0377,0.0393,0.0397,0.0347,0.0313,0.0296,0.0138,-0.0003,-0.0136,-0.0316,-0.0374,-0.0497,-0.0521,-0.0497,-0.0506,-0.0494,-0.0486,-0.0555,-0.0554,-0.0553,-0.0552,-0.0552,0,0.0334,0.0356,0.0386,0.0409,0.0425,0.0462,0.0499,0.0483,0.0465,0.0346,0.0316,0.0179,0.0067,-0.0137,-0.0296,-0.0464,-0.0481,-0.0528,-0.0528,-0.0492,-0.0497,-0.0491,-0.0484,-0.055,-0.055,-0.055,-0.055,0,0.0351,0.0373,0.038,0.0462,0.0519,0.0544,0.0574,0.0583,0.0528,0.0503,0.0355,0.0216,0.0061,-0.0129,-0.023,-0.0371,-0.0497,-0.052,-0.0523,-0.0523,-0.0487,-0.0492,-0.0487,-0.0547,-0.0547,-0.0548,-0.0548,0,0.0362,0.0377,0.0423,0.0484,0.0563,0.0584,0.0593,0.0575,0.0574,0.0457,0.0401,0.0211,0.0104,-0.0084,-0.0214,-0.0305,-0.034,-0.0366,-0.0378,-0.0383,-0.0307,-0.0235,-0.0232,0,0,0,0,0,0.0372,0.0399,0.0445,0.0492,0.0571,0.0608,0.0624,0.061,0.0589,0.0524,0.047,0.0321,0.0111,-0.0031,-0.0108,-0.0218,-0.0368,-0.0315,-0.0406,-0.0531,-0.0534,-0.047,0,0,0,0,0,0,0.0371,0.0422,0.0441,0.0517,0.0548,0.0619,0.0625,0.0585,0.0527,0.0486,0.0372,0.0323,0.0112,0.018,-0.0101,-0.0141,-0.0206,-0.0415,-0.0416,-0.0529,-0.0532,-0.0535,-0.047,0,0,0,0,0]}]]